FW1340 Weather Reports


time (UTC)temp
C
wind
direction
speed
KPH
gust
KPH
rain 1hr
cm
rain 24hr
cm
rain mn
cm
humidity
%
barometer
mb
20260906191523 25 271 0.0 0.0 0.00 0.00 0.00 40 1014.3
20260906190020 24 271 0.0 0.0 0.00 0.00 0.00 44 1014.3
20260906184515 24 259 0.0 0.0 0.00 0.00 0.00 46 1014.4
20260906183025 23 250 0.0 0.0 0.00 0.00 0.00 48 1014.4
20260906181505 23 259 0.0 0.0 0.00 0.00 0.00 51 1014.5
20260906180001 22 242 0.0 0.0 0.00 0.00 0.00 52 1014.7
20260906174558 22 272 0.0 0.0 0.00 0.00 0.00 53 1014.7
20260906173053 21 273 0.0 0.0 0.00 0.00 0.00 55 1014.8
20260906171558 20 286 0.0 0.0 0.00 0.00 0.00 59 1014.7
20260906170052 20 263 0.0 0.0 0.00 0.00 0.00 59 1014.7
20260906164553 20 235 0.0 0.0 0.00 0.00 0.00 61 1014.8
20260906163047 19 257 0.0 0.0 0.00 0.00 0.00 63 1014.7
20260906161535 18 277 0.0 0.0 0.00 0.00 0.00 65 1014.9
20260906160044 18 270 0.0 0.0 0.00 0.00 0.00 68 1014.9
20260906154527 17 222 0.0 0.0 0.00 0.00 0.00 71 1014.8
20260906153022 16 275 0.0 0.0 0.00 0.00 0.00 75 1014.9
20260906151519 15 94 0.0 0.0 0.00 0.00 0.00 79 1014.8
20260906150038 13 72 0.0 0.0 0.00 0.00 0.00 83 1014.8
20260906144511 12 113 0.0 0.0 0.00 0.00 0.00 85 1014.8
20260906143017 11 98 0.0 0.0 0.00 0.00 0.00 85 1014.6
20260906141504 10 76 0.0 0.0 0.00 0.00 0.00 86 1014.3
20260906140109 10 74 0.0 0.0 0.00 0.00 0.00 86 1014.3
20260906134559 10 155 0.0 0.0 0.00 0.00 0.00 84 1014.2
20260906133054 10 130 0.0 0.0 0.00 0.00 0.00 82 1014.1
20260906131552 11 161 0.0 0.0 0.00 0.00 0.00 83 1014.0
20260906130052 11 278 0.0 0.0 0.00 0.00 0.00 84 1013.8
20260906124550 11 309 0.0 0.0 0.00 0.00 0.00 84 1013.8
20260906123047 11 309 0.0 0.0 0.00 0.00 0.00 84 1013.8
20260906121546 11 299 0.0 0.0 0.00 0.00 0.00 83 1013.8
20260906120049 11 299 0.0 0.0 0.00 0.00 0.00 80 1013.7
20260906114542 12 299 0.0 0.0 0.00 0.00 0.00 80 1013.6
20260906113039 12 299 0.0 0.0 0.00 0.00 0.00 81 1013.6
20260906111546 12 65 0.0 0.0 0.00 0.00 0.00 81 1013.5
20260906110042 12 65 0.0 0.0 0.00 0.00 0.00 79 1013.5
20260906104535 12 65 0.0 0.0 0.00 0.00 0.00 79 1013.4
20260906103033 12 53 0.0 0.0 0.00 0.00 0.00 78 1013.5
20260906101532 12 53 0.0 0.0 0.00 0.00 0.00 78 1013.4
20260906100030 12 53 0.0 0.0 0.00 0.00 0.00 78 1013.4
20260906094542 13 61 0.0 0.0 0.00 0.00 0.00 78 1013.5
20260906093029 13 61 0.0 0.0 0.00 0.00 0.00 78 1013.6
20260906091525 13 64 0.0 0.0 0.00 0.00 0.00 77 1013.7
20260906090027 13 172 0.0 0.0 0.00 0.00 0.00 76 1013.8
20260906084525 13 101 0.0 0.0 0.00 0.00 0.00 75 1013.8
20260906083020 13 88 0.0 0.0 0.00 0.00 0.00 75 1013.9
20260906081539 13 74 0.0 0.0 0.00 0.00 0.00 74 1013.9
20260906080018 13 74 0.0 0.0 0.00 0.00 0.00 73 1013.9
20260906074516 13 72 0.0 0.0 0.00 0.00 0.00 73 1013.9
20260906073012 15 45 0.0 0.0 0.00 0.00 0.00 70 1013.8
20260906071509 15 45 0.0 0.0 0.00 0.00 0.00 68 1013.8
20260906070005 15 306 0.0 0.0 0.00 0.00 0.00 68 1013.7
20260906064505 16 308 0.0 0.0 0.00 0.00 0.00 69 1013.7
20260906063007 16 260 0.0 0.0 0.00 0.00 0.00 65 1013.7
20260906061507 17 260 0.0 0.0 0.00 0.00 0.00 66 1013.6
20260906060004 17 261 0.0 0.0 0.00 0.00 0.00 65 1013.6
20260906054503 17 257 0.0 0.0 0.00 0.00 0.00 64 1013.6
20260906053002 17 269 0.0 0.0 0.00 0.00 0.00 64 1013.6
20260906051504 18 257 0.0 0.0 0.00 0.00 0.00 64 1013.8
20260906050002 18 257 0.0 0.0 0.00 0.00 0.00 61 1013.7
20260906044501 20 255 0.0 0.0 0.00 0.00 0.00 59 1013.7
20260906043102 20 268 0.0 0.0 0.00 0.00 0.00 57 1013.5
20260906041601 20 263 0.0 0.0 0.00 0.00 0.00 57 1013.3
20260906040132 21 278 0.0 0.0 0.00 0.00 0.00 57 1013.3
20260906034605 21 271 0.0 0.0 0.00 0.00 0.00 55 1013.2
20260906033059 21 267 0.0 0.0 0.00 0.00 0.00 55 1013.0
20260906031603 22 267 0.0 0.0 0.00 0.00 0.00 54 1012.8
20260906030058 22 259 0.0 0.0 0.00 0.00 0.00 51 1012.8
20260906024601 23 267 0.0 0.0 0.00 0.00 0.00 49 1012.6
20260906023057 24 227 0.0 0.0 0.00 0.00 0.00 49 1012.7
20260906021604 25 263 0.0 0.0 0.00 0.00 0.00 47 1012.7
20260906020059 25 277 0.0 0.0 0.00 0.00 0.00 43 1012.7
20260906014559 26 254 0.0 0.0 0.00 0.00 0.00 37 1012.7
20260906013055 26 286 0.0 0.0 0.00 0.00 0.00 36 1012.6
20260906011557 27 261 0.0 0.0 0.00 0.00 0.00 36 1012.7
20260906010104 28 252 0.0 0.0 0.00 0.00 0.00 36 1012.6
20260906004555 28 273 0.0 0.0 0.00 0.00 0.00 37 1012.6
20260906003052 28 298 0.0 0.0 0.00 0.00 0.00 35 1012.6
20260906001604 28 284 0.0 0.0 0.00 0.00 0.00 35 1012.5
20260906000051 28 274 0.0 0.0 0.00 0.00 0.00 35 1012.5
20260905234549 27 236 0.0 0.0 0.00 0.00 0.00 37 1012.6
20260905233052 27 298 0.0 0.0 0.00 0.00 0.00 38 1012.6
20260905231547 27 250 0.0 0.0 0.00 0.00 0.00 38 1012.7
20260905230051 28 253 0.0 0.0 0.00 0.00 0.00 39 1012.9
20260905224554 28 277 0.0 0.0 0.00 0.00 0.00 38 1013.1
20260905223046 28 245 0.0 0.0 0.00 0.00 0.00 39 1013.0
20260905221546 27 232 0.0 0.0 0.00 0.00 0.00 41 1013.2
20260905220036 27 312 0.0 0.0 0.00 0.00 0.00 42 1013.4
20260905214535 27 312 0.0 0.0 0.00 0.00 0.00 40 1013.5
20260905213035 27 355 0.0 0.0 0.00 0.00 0.00 40 1013.6
20260905211542 27 323 0.0 0.0 0.00 0.00 0.00 40 1013.7
20260905210028 27 285 0.0 0.0 0.00 0.00 0.00 40 1013.7
20260905204528 26 283 0.0 0.0 0.00 0.00 0.00 42 1013.9
20260905203027 26 313 0.0 0.0 0.00 0.00 0.00 45 1014.0
20260905201520 26 242 0.0 0.0 0.00 0.00 0.00 46 1014.1
20260905200020 26 250 0.0 0.0 0.00 0.00 0.00 47 1014.2
20260905194513 25 242 0.0 0.0 0.00 0.00 0.00 50 1014.4
20260905193008 24 328 0.0 0.0 0.00 0.00 0.00 54 1014.5